Simultaneous Nadir Overpasses (SNOs) Predictions

Prediction of SNOs between NOAA-20 and METOP-C Satellite Orbit:

Table of predicted SNOs for the next 14.0 days since TLE Epoch: 10/13/2019
Index Date (NOAA-20) Time (NOAA-20) Lat,Lon (NOAA-20) SZA (NOAA-20 ) Date (METOP-C) Time (METOP-C) Lat,Lon (METOP-C) SZA (METOP-C ) Distance(km) Time Diff (sec)
1 10/26/2019 20:49:29 73.52,-142.30 86.08 10/26/2019 20:50:34 73.46,-139.16 85.95 99.49 65
2 10/26/2019 21:40:11 -73.41, 25.28 94.04 10/26/2019 21:41:18 -73.38, 27.99 94.12 86.25 67
3 10/26/2019 22:30:53 73.22,-167.01 85.79 10/26/2019 22:32:02 73.14,-165.22 85.66 58.44 69
4 10/26/2019 23:21:35 -73.11, 0.56 94.32 10/26/2019 23:22:46 -73.06, 1.94 94.41 45.08 71
5 10/27/2019 00:12:17 72.93, 168.26 85.50 10/27/2019 00:13:29 72.86, 168.86 85.42 20.67 72
6 10/27/2019 01:02:59 -72.81, -24.18 94.61 10/27/2019 01:04:13 -72.79, -23.98 94.65 7.34 74
7 10/27/2019 01:53:43 72.73, 143.31 85.31 10/27/2019 01:54:53 72.74, 143.26 85.32 1.96 70




NCC Satellite Simultaneous Nadir Overpasses (SNOs) Prediction Service
